Terminal Aerodrome Forecast
Issued by NWS

Home | Current Version | Previous Version | Text Only | Print | Product List | Glossary On
Versions: 1 2 3 4 5 6 7 8 9 10 11 12 13 14 15 16 17 18 19 20 21 22 23 24 25 26 27 28 29 30 31 32 33 34 35 36 37 38 39 40 41 42 43 44 45 46 47 48 49 50
831
FTUS41 KCTP 030254 AAC
TAFJST
TAF AMD
KJST 030254Z 0303/0324 31004KT P6SM VCSH BKN025 OVC080
     FM030400 35004KT P6SM VCSH OVC015
     FM030530 VRB04KT 5SM -SHRA BR OVC006
     FM031700 30006KT P6SM OVC015
     FM032000 30006KT P6SM BKN025 OVC035=

USA.gov is the U.S. government's official web portal to all federal, state and local government web resources and services.